Regional Weather Roundup
Issued by NWS Green Bay, WI

Current Version | Previous Version | Text Only | Print | Product List | Glossary On
Versions: 1 2 3 4 5 6 7 8 9 10 11 12 13 14 15 16 17 18 19 20 21 22 23 24 25 26 27 28 29 30 31 32 33 34 35 36 37 38 39 40 41 42 43 44 45 46 47 48 49 50
000
ASUS43 KGRB 281010
RWRGRB

NORTH-CENTRAL AND NORTHEAST WISCONSIN REGIONAL WEATHER ROUNDUP
NATIONAL WEATHER SERVICE GREEN BAY WI
500 AM CDT WED SEP 28 2022

WIZ005-009-010>012-018-019-281100-
NORTH CENTRAL WISCONSIN

CITY           SKY/WX    TMP DP  RH WIND       PRES   REMARKS
IRONWOOD       MOCLDY    27  27 100 CALM      30.46R
MANITOWISH WTR FOG       27  27 100 CALM      30.44R VSB 1/4
ARBOR VITAE      N/A     29  29  98 CALM      30.43S FOG
EAGLE RIVER    PTCLDY    27  27 100 CALM      30.43R FOG
LAND O LAKES   CLEAR     29  29 100 CALM      30.44R
RHINELANDER    CLEAR     27  24  89 CALM      30.43R
PHILLIPS       CLEAR     26  26 100 CALM      30.45R
ANTIGO         CLEAR     30  29  97 CALM      30.43R
TOMAHAWK       CLEAR     27  26  94 CALM      30.45R
MERRILL        CLEAR     29  29  99 CALM      30.43S
$$

WIZ013-073-281100-
NORTHEAST WISCONSIN

CITY           SKY/WX    TMP DP  RH WIND       PRES   REMARKS
IRON MOUNTAIN  CLEAR     31  29  92 CALM      30.40R
MARINETTE      CLEAR     36  34  92 NW14      30.42R
OCONTO         CLEAR     36  35  94 N7        30.41R
$$

WIZ017-030-035>037-045-281100-
CENTRAL WISCONSIN

CITY           SKY/WX    TMP DP  RH WIND       PRES   REMARKS
MEDFORD        CLEAR     27  27 100 CALM      30.45R
WAUSAU         CLEAR     35  31  85 W7        30.43R
MOSINEE        CLEAR     32  30  93 NW6       30.45R
MARSHFIELD     CLEAR     32  30  92 N6        30.45R
WISC RAPIDS    CLEAR     34  32  92 N6        30.46R
STEVENS POINT  CLEAR     36  32  88 NW6       30.45S
WAUPACA          N/A     37  34  89 NW5       30.43S
SHAWANO        CLEAR     36  35  96 NW3       30.43R
CLINTONVILLE   CLEAR     37  33  86 NW7       30.44S
WAUTOMA        CLEAR     35  34  96 CALM      30.44R
$$

WIZ038-039-048-051-281100-
FOX VALLEY

CITY           SKY/WX    TMP DP  RH WIND       PRES   REMARKS
NWS GREEN BAY  CLEAR     40  33  76 N10       30.40R
APPLETON       CLEAR     36  32  87 NW8       30.40R
OSHKOSH        CLEAR     40  34  79 N9        30.41R
FOND DU LAC    MOCLDY    40  33  76 NW10      30.41R
$$

WIZ022-050-052-281100-
EAST CENTRAL WISCONSIN

CITY           SKY/WX    TMP DP  RH WIND       PRES   REMARKS
EPHRAIM        CLOUDY    42  38  84 N13G18    30.37R
WASHINGTON ISL CLOUDY    44  39  85 N12G20    30.37R
STURGEON BAY   CLOUDY    44  39  82 N17       30.39R
MANITOWOC      CLOUDY    42  37  82 NW8       30.40R
SHEBOYGAN      PTCLDY    40  36  86 N8        30.39R
$$

LMZ563-521-522-541>543-281100-
LAKESHORE

STATION/POSITION TIME  TEMP    WIND        PRES    VSBY  WAVE
                       AIR SEA DIR/SP/G                  HT/PER
                 (UTC) (F)     (DEG/KT/KT) (MB)    (MI)  (FT/S)
SHEBOYGAN LKSHOR 1000   43     330/ 14/ 17 1029.3R
KEWAUNEE LKSHORE 0924   43     330/  6/  9 1027.5
NORTHPORT PIER   0900          330/ 19/ 24 1028.4
N MID LAKE BUOY  0950   49 61  350/ 19/ 23 1027.7R         3/ 5
CHAMBERS ISLAND  0930   45     280/ 17/ 21   N/A
GREEN BAY WEST   0924   42     340/ 11/ 15 1028.1
MENOMINEE LKSHOR 0924   40 65  320/ 13/ 16 1027.6
$$



USA.gov is the U.S. government's official web portal to all federal, state and local government web resources and services.